When you browse on this site, cookies collect data to enhance your experience and personalize the content and advertising you see.
Visit our Privacy Policy to learn more. By continuing to use the site, you agree to this use of cookies and data.
  • In Spain
  • List of Countries
  • For 7 days
  • Water Temperature
  • Weather Map
  • Weather Widgets
  • user-avatar
    Login

    Hourly Weather Bishops Stortford

    Today, 11 November, Monday

    Time Temperature Precipitation Wind Pressure Humidity
    00:00 +5°C° 0 mm 3 mps 749 mmHg 85%
    01:00 +5°C° 0.2 mm 3 mps 748 mmHg 87%
    02:00 +5°C° 0.2 mm 3 mps 747 mmHg 90%
    03:00 +5°C° 0.2 mm 3 mps 745 mmHg 92%
    04:00 +6°C° 1.9 mm 4 mps 744 mmHg 93%
    05:00 +6°C° 1.9 mm 5 mps 743 mmHg 93%
    06:00 +5°C° 0 mm 6 mps 742 mmHg 94%
    07:00 +5°C° 0.7 mm 7 mps 742 mmHg 90%
    08:00 +4°C° 0.7 mm 7 mps 742 mmHg 86%
    09:00 +4°C° 0.7 mm 8 mps 742 mmHg 82%
    10:00 +5°C° 0.1 mm 8 mps 742 mmHg 80%
    11:00 +5°C° 0.1 mm 8 mps 742 mmHg 78%
    12:00 +7°C° 0 mm 6 mps 742 mmHg 76%
    13:00 +5°C° 0.1 mm 6 mps 742 mmHg 75%
    14:00 +5°C° 0.1 mm 6 mps 742 mmHg 74%
    15:00 +5°C° 0.1 mm 7 mps 742 mmHg 73%
    16:00 +5°C° 0 mm 6 mps 743 mmHg 75%
    17:00 +4°C° 0 mm 6 mps 743 mmHg 77%
    18:00 +4°C° 0 mm 6 mps 743 mmHg 79%
    19:00 +3°C° 0 mm 6 mps 743 mmHg 80%
    20:00 +3°C° 0 mm 6 mps 743 mmHg 81%
    21:00 +2°C° 0 mm 6 mps 743 mmHg 82%
    22:00 +2°C° 0 mm 6 mps 743 mmHg 82%
    23:00 +2°C° 0 mm 6 mps 743 mmHg 82%

    Tomorrow, 12 November, Tuesday

    Time Temperature Precipitation Wind Pressure Humidity
    00:00 +2°C° 0 mm 6 mps 743 mmHg 82%
    01:00 +2°C° 0 mm 5 mps 743 mmHg 81%
    02:00 +2°C° 0 mm 5 mps 742 mmHg 81%
    03:00 +2°C° 0 mm 5 mps 742 mmHg 81%
    04:00 +2°C° 0 mm 6 mps 742 mmHg 81%
    05:00 +2°C° 0 mm 6 mps 742 mmHg 81%
    06:00 +1°C° 0 mm 6 mps 742 mmHg 82%
    07:00 +2°C° 0 mm 6 mps 742 mmHg 80%
    08:00 +2°C° 0 mm 6 mps 741 mmHg 78%
    09:00 +2°C° 0 mm 7 mps 741 mmHg 76%
    10:00 +3°C° 0 mm 7 mps 741 mmHg 75%
    11:00 +2°C° 0 mm 8 mps 741 mmHg 74%
    12:00 +3°C° 0 mm 9 mps 741 mmHg 72%
    13:00 +4°C° 0.4 mm 8 mps 740 mmHg 78%
    14:00 +4°C° 0.4 mm 7 mps 740 mmHg 83%
    15:00 +3°C° 0.4 mm 6 mps 740 mmHg 88%
    16:00 +4°C° 0.1 mm 6 mps 740 mmHg 88%
    17:00 +5°C° 0.1 mm 5 mps 740 mmHg 88%
    18:00 +5°C° 0.1 mm 4 mps 741 mmHg 88%
    19:00 +4°C° 0 mm 4 mps 741 mmHg 89%
    20:00 +4°C° 0 mm 4 mps 742 mmHg 90%
    21:00 +3°C° 0 mm 4 mps 742 mmHg 91%
    22:00 +3°C° 0 mm 4 mps 742 mmHg 91%
    23:00 +3°C° 0 mm 4 mps 743 mmHg 91%

    Day after tomorrow, 13 November, Wednesday

    Time Temperature Precipitation Wind Pressure Humidity
    00:00 +2°C° 0 mm 3 mps 743 mmHg 91%
    01:00 +2°C° 0 mm 3 mps 743 mmHg 91%
    02:00 +2°C° 0 mm 3 mps 743 mmHg 92%
    03:00 +2°C° 0 mm 3 mps 743 mmHg 93%
    04:00 +2°C° 0 mm 3 mps 743 mmHg 93%
    05:00 +2°C° 0 mm 3 mps 743 mmHg 93%
    06:00 +1°C° 0 mm 3 mps 743 mmHg 93%
    07:00 +2°C° 0 mm 3 mps 743 mmHg 91%
    08:00 +2°C° 0 mm 3 mps 743 mmHg 88%
    09:00 +3°C° 0 mm 3 mps 743 mmHg 85%
    10:00 +4°C° 0 mm 3 mps 743 mmHg 82%
    11:00 +5°C° 0 mm 3 mps 743 mmHg 80%
    12:00 +5°C° 0 mm 3 mps 742 mmHg 77%
    13:00 +5°C° 0 mm 3 mps 742 mmHg 77%
    14:00 +5°C° 0 mm 3 mps 741 mmHg 77%
    15:00 +5°C° 0 mm 3 mps 741 mmHg 77%
    16:00 +5°C° 0 mm 3 mps 740 mmHg 80%
    17:00 +4°C° 0 mm 3 mps 739 mmHg 83%
    18:00 +4°C° 0 mm 3 mps 739 mmHg 86%
    19:00 +4°C° 0 mm 3 mps 738 mmHg 86%
    20:00 +4°C° 0 mm 3 mps 737 mmHg 86%
    21:00 +4°C° 0 mm 4 mps 737 mmHg 86%
    22:00 +4°C° 0.2 mm 4 mps 737 mmHg 87%
    23:00 +3°C° 0.2 mm 5 mps 737 mmHg 87%

    14 November, Thursday

    Time Temperature Precipitation Wind Pressure Humidity
    00:00 +5°C° 0.2 mm 5 mps 736 mmHg 88%
    01:00 +5°C° 0.5 mm 5 mps 736 mmHg 89%
    02:00 +4°C° 0.5 mm 4 mps 736 mmHg 90%
    03:00 +4°C° 0.5 mm 4 mps 735 mmHg 91%
    04:00 +4°C° 0.8 mm 3 mps 736 mmHg 92%
    05:00 +4°C° 0.8 mm 3 mps 736 mmHg 93%
    06:00 +4°C° 0.8 mm 2 mps 736 mmHg 93%
    07:00 +4°C° 0.6 mm 2 mps 737 mmHg 92%
    08:00 +3°C° 0.6 mm 3 mps 737 mmHg 90%
    09:00 +3°C° 0.6 mm 3 mps 738 mmHg 89%
    10:00 +4°C° 0.1 mm 3 mps 739 mmHg 85%
    11:00 +5°C° 0.1 mm 4 mps 739 mmHg 81%
    12:00 +5°C° 0.1 mm 4 mps 740 mmHg 78%
    13:00 +5°C° 0.1 mm 4 mps 740 mmHg 78%
    14:00 +5°C° 0.1 mm 4 mps 741 mmHg 79%
    15:00 +5°C° 0.1 mm 3 mps 741 mmHg 79%
    16:00 +4°C° 0 mm 3 mps 742 mmHg 83%
    17:00 +4°C° 0 mm 3 mps 743 mmHg 86%
    18:00 +3°C° 0 mm 3 mps 743 mmHg 89%
    19:00 +3°C° 0 mm 3 mps 744 mmHg 89%
    20:00 +4°C° 0 mm 2 mps 745 mmHg 89%
    21:00 +3°C° 0 mm 2 mps 745 mmHg 89%
    22:00 +3°C° 0 mm 3 mps 746 mmHg 88%
    23:00 +3°C° 0 mm 3 mps 746 mmHg 88%

    15 November, Friday

    Time Temperature Precipitation Wind Pressure Humidity
    00:00 +3°C° 0 mm 3 mps 747 mmHg 88%
    01:00 +3°C° 0 mm 3 mps 747 mmHg 87%
    02:00 +3°C° 0 mm 4 mps 747 mmHg 86%
    03:00 +2°C° 0 mm 5 mps 747 mmHg 84%
    04:00 +2°C° 0 mm 5 mps 747 mmHg 85%
    05:00 +3°C° 0 mm 5 mps 747 mmHg 87%
    06:00 +3°C° 0 mm 5 mps 747 mmHg 88%
    07:00 +3°C° 0 mm 5 mps 747 mmHg 86%
    08:00 +4°C° 0 mm 6 mps 747 mmHg 84%
    09:00 +4°C° 0 mm 6 mps 747 mmHg 82%
    10:00 +4°C° 0.1 mm 6 mps 747 mmHg 81%
    11:00 +5°C° 0.1 mm 7 mps 747 mmHg 80%
    12:00 +5°C° 0.1 mm 7 mps 747 mmHg 79%
    13:00 +5°C° 1.2 mm 7 mps 746 mmHg 82%
    14:00 +5°C° 1.2 mm 8 mps 746 mmHg 85%
    15:00 +5°C° 1.2 mm 8 mps 746 mmHg 89%
    16:00 +5°C° 2.4 mm 7 mps 746 mmHg 90%
    17:00 +5°C° 2.4 mm 6 mps 746 mmHg 92%
    18:00 +6°C° 2.4 mm 5 mps 746 mmHg 93%
    19:00 +6°C° 0.4 mm 4 mps 746 mmHg 93%
    20:00 +7°C° 0.4 mm 3 mps 746 mmHg 94%
    21:00 +7°C° 0.4 mm 2 mps 746 mmHg 94%
    22:00 +6°C° 0.2 mm 2 mps 746 mmHg 94%
    23:00 +6°C° 0.2 mm 2 mps 746 mmHg 93%

    16 November, Saturday

    Time Temperature Precipitation Wind Pressure Humidity
    00:00 +6°C° 0.2 mm 2 mps 746 mmHg 93%
    01:00 +6°C° 0 mm 2 mps 746 mmHg 93%
    02:00 +5°C° 0 mm 2 mps 746 mmHg 92%
    03:00 +4°C° 0 mm 3 mps 746 mmHg 91%
    04:00 +4°C° 0 mm 3 mps 746 mmHg 90%
    05:00 +4°C° 0 mm 3 mps 746 mmHg 88%
    06:00 +3°C° 0 mm 4 mps 746 mmHg 86%
    07:00 +4°C° 0 mm 4 mps 747 mmHg 85%
    08:00 +4°C° 0 mm 4 mps 747 mmHg 84%
    09:00 +4°C° 0 mm 4 mps 747 mmHg 82%
    10:00 +5°C° 0 mm 5 mps 747 mmHg 82%
    11:00 +6°C° 0 mm 5 mps 747 mmHg 81%
    12:00 +6°C° 0 mm 5 mps 748 mmHg 80%
    13:00 +6°C° 0 mm 5 mps 748 mmHg 80%
    14:00 +6°C° 0 mm 5 mps 748 mmHg 80%
    15:00 +6°C° 0 mm 5 mps 748 mmHg 81%
    16:00 +6°C° 0 mm 5 mps 748 mmHg 82%
    17:00 +5°C° 0 mm 4 mps 748 mmHg 83%
    18:00 +5°C° 0 mm 4 mps 748 mmHg 84%
    19:00 +5°C° 0 mm 4 mps 749 mmHg 85%
    20:00 +4°C° 0 mm 4 mps 749 mmHg 85%
    21:00 +4°C° 0 mm 4 mps 749 mmHg 85%
    22:00 +4°C° 0 mm 4 mps 749 mmHg 85%
    23:00 +4°C° 0 mm 4 mps 750 mmHg 84%
    Show more